Simultaneous Nadir Overpasses (SNOs) Predictions

Prediction of SNOs between GOES-17 and NOAA-20 Satellite Orbit:

Table of predicted SNOs for the next 14.0 days since TLE Epoch: 11/23/2024
Index Date Time (GOES-17) GOES-17 Lat,Lon NOAA-20 Lat,Lon Distance(km) Time Diff (sec)
1 11/23/2024 20:21:57 0.00,-104.69 0.07,-104.29 45.11 80
2 11/26/2024 08:24:57 -0.00,-104.72 0.04,-105.02 34.13 80
3 11/27/2024 08:03:30 -0.00,-104.72 -0.95,-100.48 483.12 80
4 11/28/2024 20:25:25 -0.00,-104.70 -0.24,-105.77 122.25 80
5 11/29/2024 20:09:18 -0.00,-104.71 0.76,-101.23 395.39 80
6 12/01/2024 08:31:03 0.01,-104.74 0.39,-106.50 200.75 80
7 12/02/2024 08:09:37 0.01,-104.73 -0.62,-101.96 316.24 80
8 12/03/2024 20:31:30 -0.02,-104.70 -0.61,-107.25 290.43 80
9 12/04/2024 20:15:24 -0.02,-104.70 0.40,-102.71 226.92 80
10 12/06/2024 08:37:09 0.02,-104.74 0.73,-107.98 368.65 80
